This is the latest recevied weather packets stored in our database for station/object JH5HTX-13. If no packets are shown the sender has not sent any weather packets the latest 10 day(s).
| Time | Temp. | Humidity | Pressure | Rain* | Wind** | Luminosity | Snow |
|---|---|---|---|---|---|---|---|
| 1777835546 | 16.67° C | 78% | 1003.8 hPa | 0 mm | - | - | - |
| 1777834646 | 16.67° C | 81% | 1003.6 hPa | 0 mm | - | - | - |
| 1777833746 | 16.67° C | 83% | 1003.5 hPa | 0 mm | - | - | - |
| 1777832846 | 16.67° C | 85% | 1003.6 hPa | 0 mm | - | - | - |
| 1777831946 | 16.67° C | 87% | 1003.4 hPa | 0 mm | - | - | - |
| 1777831046 | 16.67° C | 87% | 1002.9 hPa | 0 mm | - | - | - |
| 1777830146 | 16.67° C | 88% | 1002.5 hPa | 0 mm | - | - | - |
| 1777829245 | 16.67° C | 89% | 1002.9 hPa | 0 mm | - | - | - |
| 1777828345 | 17.22° C | 94% | 1002.1 hPa | 0 mm | - | - | - |
| 1777827445 | 17.22° C | 94% | 1002.1 hPa | 0 mm | - | - | - |
| 1777826545 | 17.22° C | 94% | 1002.1 hPa | 0 mm | - | - | - |
| 1777825645 | 17.22° C | 94% | 1002.1 hPa | 0 mm | - | - | - |
| 1777824745 | 17.22° C | 94% | 1002.1 hPa | 0 mm | - | - | - |
| 1777823845 | 17.22° C | 94% | 1002.1 hPa | 0 mm | - | - | - |
| 1777822945 | 17.22° C | 94% | 1002.1 hPa | 0 mm | - | - | - |
| 1777822045 | 17.22° C | 94% | 1002.1 hPa | 0 mm | - | - | - |
| 1777821145 | 17.22° C | 94% | 1002.1 hPa | 0 mm | - | - | - |
| 1777820244 | 17.22° C | 94% | 1002.1 hPa | 0 mm | - | - | - |
| 1777819344 | 17.78° C | 94% | 1001.9 hPa | 0 mm | - | - | - |
| 1777818444 | 17.78° C | 95% | 1002.1 hPa | 0 mm | - | - | - |
| 1777817544 | 17.78° C | 97% | 1002 hPa | 0 mm | - | - | - |
| 1777816644 | 17.78° C | 98% | 1001.7 hPa | 0 mm | - | - | - |
| 1777815744 | 17.22° C | 98% | 1001.8 hPa | 0 mm | - | - | - |
| 1777814844 | 17.22° C | 97% | 1002.2 hPa | 1.52 mm | - | - | - |
| 1777813944 | 17.22° C | 96% | 1001.8 hPa | 1.52 mm | - | - | - |
* Rain latest hour (hover to see other rain measurements)
** Current wind speed in m/s (hover to see current wind gust speed)